Year,Month,Day,Hour,Minute,Value (Times are PST for temperature in C)
2008,05,23,00,00,8.00
2008,05,23,00,01,7.90
2008,05,23,00,02,7.90
2008,05,23,00,03,7.90
2008,05,23,00,04,7.80
2008,05,23,00,05,7.80
2008,05,23,00,06,7.80
2008,05,23,00,07,7.70
2008,05,23,00,08,7.70
2008,05,23,00,09,7.70
2008,05,23,00,10,7.60
2008,05,23,00,11,7.60
2008,05,23,00,12,7.60
2008,05,23,00,13,7.60
2008,05,23,00,14,7.60
2008,05,23,00,15,7.60
2008,05,23,00,16,7.60
2008,05,23,00,17,7.60
2008,05,23,00,18,7.50
2008,05,23,00,19,7.50
2008,05,23,00,20,7.50
2008,05,23,00,21,7.50
2008,05,23,00,22,7.50
2008,05,23,00,23,7.40
2008,05,23,00,24,7.40
2008,05,23,00,25,7.40
2008,05,23,00,26,7.40
2008,05,23,00,27,7.40
2008,05,23,00,28,7.40
2008,05,23,00,29,7.40
2008,05,23,00,30,7.40
2008,05,23,00,31,7.40
2008,05,23,00,32,7.40
2008,05,23,00,33,7.40
2008,05,23,00,34,7.40
2008,05,23,00,35,7.30
2008,05,23,00,36,7.30
2008,05,23,00,37,7.30
2008,05,23,00,38,7.30
2008,05,23,00,39,7.30
2008,05,23,00,40,7.30
2008,05,23,00,41,7.30
2008,05,23,00,42,7.30
2008,05,23,00,43,7.30
2008,05,23,00,44,7.30
2008,05,23,00,45,7.20
2008,05,23,00,46,7.20
2008,05,23,00,47,7.20
2008,05,23,00,48,7.20
2008,05,23,00,49,7.20
2008,05,23,00,50,7.20
2008,05,23,00,51,7.20
2008,05,23,00,52,7.20
2008,05,23,00,53,7.10
2008,05,23,00,54,7.10
2008,05,23,00,55,7.10
2008,05,23,00,56,7.10
2008,05,23,00,57,7.10
2008,05,23,00,58,7.10
2008,05,23,00,59,7.00
2008,05,23,01,00,7.00
2008,05,23,01,01,7.00
2008,05,23,01,02,6.90
2008,05,23,01,03,6.90
2008,05,23,01,04,6.90
2008,05,23,01,05,6.80
2008,05,23,01,06,6.80
2008,05,23,01,07,6.80
2008,05,23,01,08,6.80
2008,05,23,01,09,6.80
2008,05,23,01,10,6.80
2008,05,23,01,11,6.80
2008,05,23,01,12,6.80
2008,05,23,01,13,6.80
2008,05,23,01,14,6.80
2008,05,23,01,15,6.80
2008,05,23,01,16,6.70
2008,05,23,01,17,6.70
2008,05,23,01,18,6.70
2008,05,23,01,19,6.70
2008,05,23,01,20,6.70
2008,05,23,01,21,6.70
2008,05,23,01,22,6.70
2008,05,23,01,23,6.70
2008,05,23,01,24,6.70
2008,05,23,01,25,6.70
2008,05,23,01,26,6.70
2008,05,23,01,27,6.60
2008,05,23,01,28,6.60
2008,05,23,01,29,6.60
2008,05,23,01,30,6.60
2008,05,23,01,31,6.60
2008,05,23,01,32,6.60
2008,05,23,01,33,6.60
2008,05,23,01,34,6.60
2008,05,23,01,35,6.60
2008,05,23,01,36,6.60
2008,05,23,01,37,6.60
2008,05,23,01,38,6.60
2008,05,23,01,39,6.60
2008,05,23,01,40,6.60
2008,05,23,01,41,6.60
2008,05,23,01,42,6.60
2008,05,23,01,43,6.60
2008,05,23,01,44,6.60
2008,05,23,01,45,6.50
2008,05,23,01,46,6.40
2008,05,23,01,47,6.40
2008,05,23,01,48,6.40
2008,05,23,01,49,6.40
2008,05,23,01,50,6.40
2008,05,23,01,51,6.40
2008,05,23,01,52,6.40
2008,05,23,01,53,6.40
2008,05,23,01,54,6.40
2008,05,23,01,55,6.40
2008,05,23,01,56,6.40
2008,05,23,01,57,6.40
2008,05,23,01,58,6.40
2008,05,23,01,59,6.40
2008,05,23,02,00,6.40
2008,05,23,02,01,6.40
2008,05,23,02,02,6.40
2008,05,23,02,03,6.40
2008,05,23,02,04,6.40
2008,05,23,02,05,6.40
2008,05,23,02,06,6.40
2008,05,23,02,07,6.30
2008,05,23,02,08,6.30
2008,05,23,02,09,6.30
2008,05,23,02,10,6.30
2008,05,23,02,11,6.30
2008,05,23,02,12,6.30
2008,05,23,02,13,6.20
2008,05,23,02,14,6.20
2008,05,23,02,15,6.20
2008,05,23,02,16,6.20
2008,05,23,02,17,6.20
2008,05,23,02,18,6.20
2008,05,23,02,19,6.20
2008,05,23,02,20,6.20
2008,05,23,02,21,6.20
2008,05,23,02,22,6.20
2008,05,23,02,23,6.20
2008,05,23,02,24,6.20
2008,05,23,02,25,6.20
2008,05,23,02,26,6.10
2008,05,23,02,27,6.10
2008,05,23,02,28,6.10
2008,05,23,02,29,6.10
2008,05,23,02,30,6.10
2008,05,23,02,31,6.10
2008,05,23,02,32,6.10
2008,05,23,02,33,6.10
2008,05,23,02,34,6.10
2008,05,23,02,35,6.10
2008,05,23,02,36,6.10
2008,05,23,02,37,6.10
2008,05,23,02,38,6.10
2008,05,23,02,39,6.00
2008,05,23,02,40,6.00
2008,05,23,02,41,6.00
2008,05,23,02,42,6.00
2008,05,23,02,43,6.00
2008,05,23,02,44,6.00
2008,05,23,02,45,6.00
2008,05,23,02,46,6.00
2008,05,23,02,47,6.00
2008,05,23,02,48,6.00
2008,05,23,02,49,6.00
2008,05,23,02,50,6.00
2008,05,23,02,51,5.90
2008,05,23,02,52,5.90
2008,05,23,02,53,5.90
2008,05,23,02,54,5.90
2008,05,23,02,55,5.90
2008,05,23,02,56,5.90
2008,05,23,02,57,5.90
2008,05,23,02,58,5.90
2008,05,23,02,59,5.90
2008,05,23,03,00,5.90
2008,05,23,03,01,5.90
2008,05,23,03,02,5.90
2008,05,23,03,03,5.90
2008,05,23,03,04,5.90
2008,05,23,03,05,5.90
2008,05,23,03,06,5.90
2008,05,23,03,07,5.90
2008,05,23,03,08,5.90
2008,05,23,03,09,5.90
2008,05,23,03,10,5.90
2008,05,23,03,11,5.90
2008,05,23,03,12,5.90
2008,05,23,03,13,5.90
2008,05,23,03,14,5.90
2008,05,23,03,15,5.90
2008,05,23,03,16,5.90
2008,05,23,03,17,5.90
2008,05,23,03,18,5.90
2008,05,23,03,19,5.90
2008,05,23,03,20,6.00
2008,05,23,03,21,6.00
2008,05,23,03,22,6.00
2008,05,23,03,23,6.00
2008,05,23,03,24,6.00
2008,05,23,03,25,6.00
2008,05,23,03,26,6.00
2008,05,23,03,27,6.00
2008,05,23,03,28,6.00
2008,05,23,03,29,6.00
2008,05,23,03,30,6.00
2008,05,23,03,31,6.00
2008,05,23,03,32,6.00
2008,05,23,03,33,6.00
2008,05,23,03,34,6.00
2008,05,23,03,35,6.00
2008,05,23,03,36,6.00
2008,05,23,03,37,6.00
2008,05,23,03,38,6.00
2008,05,23,03,39,6.00
2008,05,23,03,40,6.00
2008,05,23,03,41,6.00
2008,05,23,03,42,6.00
2008,05,23,03,43,6.00
2008,05,23,03,44,6.00
2008,05,23,03,45,6.00
2008,05,23,03,46,5.90
2008,05,23,03,47,5.90
2008,05,23,03,48,5.80
2008,05,23,03,49,5.80
2008,05,23,03,50,5.80
2008,05,23,03,51,5.70
2008,05,23,03,52,5.70
2008,05,23,03,53,5.70
2008,05,23,03,54,5.70
2008,05,23,03,55,5.70
2008,05,23,03,56,5.70
2008,05,23,03,57,5.60
2008,05,23,03,58,5.60
2008,05,23,03,59,5.60
2008,05,23,04,00,5.50
2008,05,23,04,01,5.50
2008,05,23,04,02,5.50
2008,05,23,04,03,5.40
2008,05,23,04,04,5.40
2008,05,23,04,05,5.40
2008,05,23,04,06,5.40
2008,05,23,04,07,5.30
2008,05,23,04,08,5.30
2008,05,23,04,09,5.30
2008,05,23,04,10,5.30
2008,05,23,04,11,5.30
2008,05,23,04,12,5.30
2008,05,23,04,13,5.30
2008,05,23,04,14,5.30
2008,05,23,04,15,5.30
2008,05,23,04,16,5.30
2008,05,23,04,17,5.30
2008,05,23,04,18,5.30
2008,05,23,04,19,5.30
2008,05,23,04,20,5.20
2008,05,23,04,21,5.20
2008,05,23,04,22,5.20
2008,05,23,04,23,5.20
2008,05,23,04,24,5.20
2008,05,23,04,25,5.20
2008,05,23,04,26,5.20
2008,05,23,04,27,5.20
2008,05,23,04,28,5.20
2008,05,23,04,29,5.20
2008,05,23,04,30,5.10
2008,05,23,04,31,5.10
2008,05,23,04,32,5.10
2008,05,23,04,33,5.10
2008,05,23,04,34,5.20
2008,05,23,04,35,5.10
2008,05,23,04,36,5.10
2008,05,23,04,37,5.10
2008,05,23,04,38,5.10
2008,05,23,04,39,5.20
2008,05,23,04,40,5.20
2008,05,23,04,41,5.10
2008,05,23,04,42,5.10
2008,05,23,04,43,5.20
2008,05,23,04,44,5.20
2008,05,23,04,45,5.10
2008,05,23,04,46,5.10
2008,05,23,04,47,5.10
2008,05,23,04,48,5.10
2008,05,23,04,49,5.10
2008,05,23,04,50,5.10
2008,05,23,04,51,5.10
2008,05,23,04,52,5.10
2008,05,23,04,53,5.10
2008,05,23,04,54,5.10
2008,05,23,04,55,5.10
2008,05,23,04,56,5.10
2008,05,23,04,57,5.10
2008,05,23,04,58,5.10
2008,05,23,04,59,5.10
2008,05,23,05,00,5.00
2008,05,23,05,01,4.90
2008,05,23,05,02,4.90
2008,05,23,05,03,4.90
2008,05,23,05,04,4.90
2008,05,23,05,05,4.90
2008,05,23,05,06,4.90
2008,05,23,05,07,4.90
2008,05,23,05,08,4.90
2008,05,23,05,09,4.90
2008,05,23,05,10,4.90
2008,05,23,05,11,4.90
2008,05,23,05,12,4.90
2008,05,23,05,13,4.90
2008,05,23,05,14,4.90
2008,05,23,05,15,4.90
2008,05,23,05,16,4.90
2008,05,23,05,17,4.90
2008,05,23,05,18,4.90
2008,05,23,05,19,4.90
2008,05,23,05,20,4.90
2008,05,23,05,21,4.90
2008,05,23,05,22,4.80
2008,05,23,05,23,4.80
2008,05,23,05,24,4.80
2008,05,23,05,25,4.80
2008,05,23,05,26,4.80
2008,05,23,05,27,4.80
2008,05,23,05,28,4.90
2008,05,23,05,29,4.90
2008,05,23,05,30,4.90
2008,05,23,05,31,4.90
2008,05,23,05,32,4.90
2008,05,23,05,33,4.90
2008,05,23,05,34,4.90
2008,05,23,05,35,4.90
2008,05,23,05,36,4.90
2008,05,23,05,37,4.90
2008,05,23,05,38,4.90
2008,05,23,05,39,4.90
2008,05,23,05,40,4.90
2008,05,23,05,41,4.90
2008,05,23,05,42,4.90
2008,05,23,05,43,4.90
2008,05,23,05,44,4.90
2008,05,23,05,45,4.90
2008,05,23,05,46,4.90
2008,05,23,05,47,4.90
2008,05,23,05,48,5.00
2008,05,23,05,49,5.10
2008,05,23,05,50,5.10
2008,05,23,05,51,5.10
2008,05,23,05,52,5.10
2008,05,23,05,53,5.10
2008,05,23,05,54,5.10
2008,05,23,05,55,5.10
2008,05,23,05,56,5.20
2008,05,23,05,57,5.20
2008,05,23,05,58,5.20
2008,05,23,05,59,5.20
2008,05,23,06,00,5.20
2008,05,23,06,01,5.20
2008,05,23,06,02,5.20
2008,05,23,06,03,5.30
2008,05,23,06,04,5.30
2008,05,23,06,05,5.30
2008,05,23,06,06,5.30
2008,05,23,06,07,5.30
2008,05,23,06,08,5.30
2008,05,23,06,09,5.30
2008,05,23,06,10,5.20
2008,05,23,06,11,5.20
2008,05,23,06,12,5.20
2008,05,23,06,13,5.10
2008,05,23,06,14,5.10
2008,05,23,06,15,5.10
2008,05,23,06,16,5.10
2008,05,23,06,17,5.10
2008,05,23,06,18,5.10
2008,05,23,06,19,5.10
2008,05,23,06,20,5.10
2008,05,23,06,21,5.10
2008,05,23,06,22,5.10
2008,05,23,06,23,5.10
2008,05,23,06,24,5.10
2008,05,23,06,25,5.20
2008,05,23,06,26,5.20
2008,05,23,06,27,5.20
2008,05,23,06,28,5.30
2008,05,23,06,29,5.30
2008,05,23,06,30,5.30
2008,05,23,06,31,5.30
2008,05,23,06,32,5.30
2008,05,23,06,33,5.30
2008,05,23,06,34,5.30
2008,05,23,06,35,5.30
2008,05,23,06,36,5.30
2008,05,23,06,37,5.30
2008,05,23,06,38,5.30
2008,05,23,06,39,5.30
2008,05,23,06,40,5.40
2008,05,23,06,41,5.40
2008,05,23,06,42,5.50
2008,05,23,06,43,5.50
2008,05,23,06,44,5.60
2008,05,23,06,45,5.70
2008,05,23,06,46,5.70
2008,05,23,06,47,5.70
2008,05,23,06,48,5.80
2008,05,23,06,49,5.80
2008,05,23,06,50,5.90
2008,05,23,06,51,5.90
2008,05,23,06,52,5.90
2008,05,23,06,53,5.90
2008,05,23,06,54,6.00
2008,05,23,06,55,6.00
2008,05,23,06,56,6.00
2008,05,23,06,57,6.00
2008,05,23,06,58,6.00
2008,05,23,06,59,6.00
2008,05,23,07,00,6.10
2008,05,23,07,01,6.10
2008,05,23,07,02,6.20
2008,05,23,07,03,6.20
2008,05,23,07,04,6.20
2008,05,23,07,05,6.20
2008,05,23,07,06,6.30
2008,05,23,07,07,6.30
2008,05,23,07,08,6.30
2008,05,23,07,09,6.40
2008,05,23,07,10,6.40
2008,05,23,07,11,6.40
2008,05,23,07,12,6.40
2008,05,23,07,13,6.40
2008,05,23,07,14,6.40
2008,05,23,07,15,6.50
2008,05,23,07,16,6.60
2008,05,23,07,17,6.60
2008,05,23,07,18,6.60
2008,05,23,07,19,6.60
2008,05,23,07,20,6.60
2008,05,23,07,21,6.70
2008,05,23,07,22,6.70
2008,05,23,07,23,6.70
2008,05,23,07,24,6.80
2008,05,23,07,25,6.80
2008,05,23,07,26,6.90
2008,05,23,07,27,7.00
2008,05,23,07,28,7.00
2008,05,23,07,29,7.10
2008,05,23,07,30,7.20
2008,05,23,07,31,7.20
2008,05,23,07,32,7.30
2008,05,23,07,33,7.50
2008,05,23,07,34,7.50
2008,05,23,07,35,7.60
2008,05,23,07,36,7.60
2008,05,23,07,37,7.70
2008,05,23,07,38,7.80
2008,05,23,07,39,7.80
2008,05,23,07,40,7.80
2008,05,23,07,41,7.90
2008,05,23,07,42,7.90
2008,05,23,07,43,7.90
2008,05,23,07,44,8.00
2008,05,23,07,45,8.00
2008,05,23,07,46,8.00
2008,05,23,07,47,8.10
2008,05,23,07,48,8.10
2008,05,23,07,49,8.10
2008,05,23,07,50,8.20
2008,05,23,07,51,8.20
2008,05,23,07,52,8.20
2008,05,23,07,53,8.20
2008,05,23,07,54,8.30
2008,05,23,07,55,8.30
2008,05,23,07,56,8.40
2008,05,23,07,57,8.40
2008,05,23,07,58,8.50
2008,05,23,07,59,8.50
2008,05,23,08,00,8.60
2008,05,23,08,01,8.60
2008,05,23,08,02,8.60
2008,05,23,08,03,8.70
2008,05,23,08,04,8.70
2008,05,23,08,05,8.70
2008,05,23,08,06,8.70
2008,05,23,08,07,8.70
2008,05,23,08,08,8.70
2008,05,23,08,09,8.80
2008,05,23,08,10,8.80
2008,05,23,08,11,8.90
2008,05,23,08,12,8.90
2008,05,23,08,13,9.00
2008,05,23,08,14,9.00
2008,05,23,08,15,9.10
2008,05,23,08,16,9.20
2008,05,23,08,17,9.20
2008,05,23,08,18,9.20
2008,05,23,08,19,9.30
2008,05,23,08,20,9.40
2008,05,23,08,21,9.40
2008,05,23,08,22,9.40
2008,05,23,08,23,9.50
2008,05,23,08,24,9.50
2008,05,23,08,25,9.50
2008,05,23,08,26,9.60
2008,05,23,08,27,9.70
2008,05,23,08,28,9.70
2008,05,23,08,29,9.70
2008,05,23,08,30,9.70
2008,05,23,08,31,9.70
2008,05,23,08,32,9.80
2008,05,23,08,33,9.80
2008,05,23,08,34,9.80
2008,05,23,08,35,9.90
2008,05,23,08,36,9.90
2008,05,23,08,37,9.90
2008,05,23,08,38,9.90
2008,05,23,08,39,10.10
2008,05,23,08,40,10.10
2008,05,23,08,41,10.10
2008,05,23,08,42,10.10
2008,05,23,08,43,10.10
2008,05,23,08,44,10.10
2008,05,23,08,45,10.20
2008,05,23,08,46,10.20
2008,05,23,08,47,10.30
2008,05,23,08,48,10.30
2008,05,23,08,49,10.40
2008,05,23,08,50,10.40
2008,05,23,08,51,10.60
2008,05,23,08,52,10.60
2008,05,23,08,53,10.60
2008,05,23,08,54,10.70
2008,05,23,08,55,10.70
2008,05,23,08,56,10.80
2008,05,23,08,57,10.90
2008,05,23,08,58,11.00
2008,05,23,08,59,11.10
2008,05,23,09,00,11.20
2008,05,23,09,01,11.30
2008,05,23,09,02,11.50
2008,05,23,09,03,11.60
2008,05,23,09,04,11.70
2008,05,23,09,05,11.80
2008,05,23,09,06,11.90
2008,05,23,09,07,11.90
2008,05,23,09,08,12.00
2008,05,23,09,09,12.10
2008,05,23,09,10,12.20
2008,05,23,09,11,12.30
2008,05,23,09,12,12.50
2008,05,23,09,13,12.70
2008,05,23,09,14,12.80
2008,05,23,09,15,13.00
2008,05,23,09,16,13.20
2008,05,23,09,17,13.30
2008,05,23,09,18,13.40
2008,05,23,09,19,13.50
2008,05,23,09,20,13.60
2008,05,23,09,21,13.70
2008,05,23,09,22,13.70
2008,05,23,09,23,13.70
2008,05,23,09,24,13.70
2008,05,23,09,25,13.70
2008,05,23,09,26,13.80
2008,05,23,09,27,13.90
2008,05,23,09,28,14.00
2008,05,23,09,29,14.00
2008,05,23,09,30,14.10
2008,05,23,09,31,14.20
2008,05,23,09,32,14.20
2008,05,23,09,33,14.20
2008,05,23,09,34,14.30
2008,05,23,09,35,14.30
2008,05,23,09,36,14.30
2008,05,23,09,37,14.20
2008,05,23,09,38,14.20
2008,05,23,09,39,14.20
2008,05,23,09,40,14.10
2008,05,23,09,41,14.00
2008,05,23,09,42,14.00
2008,05,23,09,43,14.00
2008,05,23,09,44,14.00
2008,05,23,09,45,14.00
2008,05,23,09,46,13.90
2008,05,23,09,47,13.90
2008,05,23,09,48,13.90
2008,05,23,09,49,13.90
2008,05,23,09,50,13.90
2008,05,23,09,51,13.80
2008,05,23,09,52,13.80
2008,05,23,09,53,13.80
2008,05,23,09,54,13.80
2008,05,23,09,55,13.80
2008,05,23,09,56,13.80
2008,05,23,09,57,13.80
2008,05,23,09,58,13.70
2008,05,23,09,59,13.70
2008,05,23,10,00,13.70
2008,05,23,10,01,13.80
2008,05,23,10,02,13.80
2008,05,23,10,03,13.80
2008,05,23,10,04,13.70
2008,05,23,10,05,13.70
2008,05,23,10,06,13.70
2008,05,23,10,07,13.70
2008,05,23,10,08,13.70
2008,05,23,10,09,13.70
2008,05,23,10,10,13.80
2008,05,23,10,11,13.80
2008,05,23,10,12,13.90
2008,05,23,10,13,13.90
2008,05,23,10,14,14.00
2008,05,23,10,15,14.10
2008,05,23,10,16,14.10
2008,05,23,10,17,14.00
2008,05,23,10,18,14.00
2008,05,23,10,19,13.90
2008,05,23,10,20,13.90
2008,05,23,10,21,13.90
2008,05,23,10,22,13.90
2008,05,23,10,23,14.00
2008,05,23,10,24,14.00
2008,05,23,10,25,14.10
2008,05,23,10,26,14.20
2008,05,23,10,27,14.20
2008,05,23,10,28,14.40
2008,05,23,10,29,14.50
2008,05,23,10,30,14.50
2008,05,23,10,31,14.50
2008,05,23,10,32,14.40
2008,05,23,10,33,14.40
2008,05,23,10,34,14.40
2008,05,23,10,35,14.40
2008,05,23,10,36,14.50
2008,05,23,10,37,14.50
2008,05,23,10,38,14.60
2008,05,23,10,39,14.60
2008,05,23,10,40,14.50
2008,05,23,10,41,14.20
2008,05,23,10,42,13.80
2008,05,23,10,43,13.80
2008,05,23,10,44,13.30
2008,05,23,10,45,13.10
2008,05,23,10,46,12.90
2008,05,23,10,47,12.80
2008,05,23,10,48,12.60
2008,05,23,10,49,12.60
2008,05,23,10,50,12.50
2008,05,23,10,51,12.30
2008,05,23,10,52,12.30
2008,05,23,10,53,12.20
2008,05,23,10,54,12.10
2008,05,23,10,55,12.10
2008,05,23,10,56,12.10
2008,05,23,10,57,12.10
2008,05,23,10,58,12.10
2008,05,23,10,59,12.10
2008,05,23,11,00,12.20
2008,05,23,11,01,12.20
2008,05,23,11,02,12.30
2008,05,23,11,03,12.30
2008,05,23,11,04,12.30
2008,05,23,11,05,12.40
2008,05,23,11,06,12.30
2008,05,23,11,07,12.30
2008,05,23,11,08,12.30
2008,05,23,11,09,12.20
2008,05,23,11,10,12.20
2008,05,23,11,11,12.20
2008,05,23,11,12,12.10
2008,05,23,11,13,12.10
2008,05,23,11,14,12.00
2008,05,23,11,15,12.00
2008,05,23,11,16,12.00
2008,05,23,11,17,11.90
2008,05,23,11,18,11.90
2008,05,23,11,19,11.90
2008,05,23,11,20,11.90
2008,05,23,11,21,11.90
2008,05,23,11,22,11.80
2008,05,23,11,23,11.80
2008,05,23,11,24,11.90
2008,05,23,11,25,11.90
2008,05,23,11,26,11.80
2008,05,23,11,27,11.90
2008,05,23,11,28,11.90
2008,05,23,11,29,11.90
2008,05,23,11,30,11.90
2008,05,23,11,31,11.90
2008,05,23,11,32,11.90
2008,05,23,11,33,11.80
2008,05,23,11,34,11.80
2008,05,23,11,35,11.90
2008,05,23,11,36,12.00
2008,05,23,11,37,12.10
2008,05,23,11,38,12.20
2008,05,23,11,39,12.20
2008,05,23,11,40,12.20
2008,05,23,11,41,12.30
2008,05,23,11,42,12.30
2008,05,23,11,43,12.30
2008,05,23,11,44,12.50
2008,05,23,11,45,12.70
2008,05,23,11,46,12.80
2008,05,23,11,47,12.80
2008,05,23,11,48,12.80
2008,05,23,11,49,12.90
2008,05,23,11,50,13.00
2008,05,23,11,51,13.00
2008,05,23,11,52,13.00
2008,05,23,11,53,13.00
2008,05,23,11,54,13.00
2008,05,23,11,55,13.00
2008,05,23,11,56,13.00
2008,05,23,11,57,13.00
2008,05,23,11,58,13.00
2008,05,23,11,59,13.10
2008,05,23,12,00,13.20
2008,05,23,12,01,13.20
2008,05,23,12,02,13.20
2008,05,23,12,03,13.20
2008,05,23,12,04,13.20
2008,05,23,12,05,13.10
2008,05,23,12,06,13.00
2008,05,23,12,07,13.10
2008,05,23,12,08,13.00
2008,05,23,12,09,13.00
2008,05,23,12,10,13.10
2008,05,23,12,11,13.10
2008,05,23,12,12,13.10
2008,05,23,12,13,13.10
2008,05,23,12,14,13.20
2008,05,23,12,15,13.30
2008,05,23,12,16,13.30
2008,05,23,12,17,13.30
2008,05,23,12,18,13.30
2008,05,23,12,19,13.30
2008,05,23,12,20,13.30
2008,05,23,12,21,13.20
2008,05,23,12,22,13.10
2008,05,23,12,23,13.20
2008,05,23,12,24,13.30
2008,05,23,12,25,13.40
2008,05,23,12,26,13.50
2008,05,23,12,27,13.60
2008,05,23,12,28,13.60
2008,05,23,12,29,13.60
2008,05,23,12,30,13.70
2008,05,23,12,31,13.80
2008,05,23,12,32,13.90
2008,05,23,12,33,14.00
2008,05,23,12,34,14.00
2008,05,23,12,35,14.10
2008,05,23,12,36,14.20
2008,05,23,12,37,14.10
2008,05,23,12,38,14.10
2008,05,23,12,39,14.20
2008,05,23,12,40,14.30
2008,05,23,12,41,14.40
2008,05,23,12,42,14.50
2008,05,23,12,43,14.60
2008,05,23,12,44,14.70
2008,05,23,12,45,14.80
2008,05,23,12,46,14.80
2008,05,23,12,47,14.90
2008,05,23,12,48,14.90
2008,05,23,12,49,14.80
2008,05,23,12,50,14.90
2008,05,23,12,51,15.00
2008,05,23,12,52,15.10
2008,05,23,12,53,15.20
2008,05,23,12,54,15.30
2008,05,23,12,55,15.30
2008,05,23,12,56,15.50
2008,05,23,12,57,15.60
2008,05,23,12,58,15.70
2008,05,23,12,59,15.80
2008,05,23,13,00,16.00
2008,05,23,13,01,16.10
2008,05,23,13,02,16.10
2008,05,23,13,03,16.20
2008,05,23,13,04,16.20
2008,05,23,13,05,16.30
2008,05,23,13,06,16.40
2008,05,23,13,07,16.40
2008,05,23,13,08,16.60
2008,05,23,13,09,16.60
2008,05,23,13,10,16.50
2008,05,23,13,11,16.40
2008,05,23,13,12,16.40
2008,05,23,13,13,16.40
2008,05,23,13,14,16.40
2008,05,23,13,15,16.40
2008,05,23,13,16,16.40
2008,05,23,13,17,16.30
2008,05,23,13,18,16.10
2008,05,23,13,19,16.00
2008,05,23,13,20,15.80
2008,05,23,13,21,15.60
2008,05,23,13,22,15.50
2008,05,23,13,23,15.50
2008,05,23,13,24,15.40
2008,05,23,13,25,15.30
2008,05,23,13,26,15.30
2008,05,23,13,27,15.20
2008,05,23,13,28,15.20
2008,05,23,13,29,15.20
2008,05,23,13,30,15.20
2008,05,23,13,31,15.30
2008,05,23,13,32,15.30
2008,05,23,13,33,15.30
2008,05,23,13,34,15.30
2008,05,23,13,35,15.30
2008,05,23,13,36,15.30
2008,05,23,13,37,15.30
2008,05,23,13,38,15.40
2008,05,23,13,39,15.40
2008,05,23,13,40,15.40
2008,05,23,13,41,15.30
2008,05,23,13,42,15.30
2008,05,23,13,43,15.30
2008,05,23,13,44,15.30
2008,05,23,13,45,15.30
2008,05,23,13,46,15.20
2008,05,23,13,47,15.20
2008,05,23,13,48,15.20
2008,05,23,13,49,15.20
2008,05,23,13,50,15.10
2008,05,23,13,51,15.20
2008,05,23,13,52,15.10
2008,05,23,13,53,15.10
2008,05,23,13,54,15.10
2008,05,23,13,55,15.10
2008,05,23,13,56,15.20
2008,05,23,13,57,15.20
2008,05,23,13,58,15.20
2008,05,23,13,59,15.10
2008,05,23,14,00,15.00
2008,05,23,14,01,15.00
2008,05,23,14,02,14.90
2008,05,23,14,03,15.00
2008,05,23,14,04,15.00
2008,05,23,14,05,15.00
2008,05,23,14,06,15.00
2008,05,23,14,07,15.10
2008,05,23,14,08,15.10
2008,05,23,14,09,15.20
2008,05,23,14,10,15.20
2008,05,23,14,11,15.20
2008,05,23,14,12,15.20
2008,05,23,14,13,15.20
2008,05,23,14,14,15.10
2008,05,23,14,15,15.10
2008,05,23,14,16,15.00
2008,05,23,14,17,15.00
2008,05,23,14,18,15.00
2008,05,23,14,19,15.00
2008,05,23,14,20,15.00
2008,05,23,14,21,14.90
2008,05,23,14,22,14.90
2008,05,23,14,23,14.80
2008,05,23,14,24,14.80
2008,05,23,14,25,14.80
2008,05,23,14,26,14.80
2008,05,23,14,27,14.80
2008,05,23,14,28,14.80
2008,05,23,14,29,14.80
2008,05,23,14,30,14.80
2008,05,23,14,31,14.80
2008,05,23,14,32,14.80
2008,05,23,14,33,14.90
2008,05,23,14,34,14.90
2008,05,23,14,35,14.80
2008,05,23,14,36,14.90
2008,05,23,14,37,14.90
2008,05,23,14,38,14.90
2008,05,23,14,39,14.80
2008,05,23,14,40,14.80
2008,05,23,14,41,14.70
2008,05,23,14,42,14.70
2008,05,23,14,43,14.60
2008,05,23,14,44,14.60
2008,05,23,14,45,14.60
2008,05,23,14,46,14.70
2008,05,23,14,47,14.70
2008,05,23,14,48,14.80
2008,05,23,14,49,14.80
2008,05,23,14,50,14.70
2008,05,23,14,51,14.70
2008,05,23,14,52,14.70
2008,05,23,14,53,14.70
2008,05,23,14,54,14.80
2008,05,23,14,55,14.70
2008,05,23,14,56,14.50
2008,05,23,14,57,14.50
2008,05,23,14,58,14.40
2008,05,23,14,59,14.40
2008,05,23,15,00,14.40
2008,05,23,15,01,14.40
2008,05,23,15,02,14.40
2008,05,23,15,03,14.40
2008,05,23,15,04,14.40
2008,05,23,15,05,14.30
2008,05,23,15,06,14.20
2008,05,23,15,07,14.20
2008,05,23,15,08,14.00
2008,05,23,15,09,14.00
2008,05,23,15,10,14.00
2008,05,23,15,11,14.00
2008,05,23,15,12,13.90
2008,05,23,15,13,13.90
2008,05,23,15,14,13.90
2008,05,23,15,15,13.90
2008,05,23,15,16,13.90
2008,05,23,15,17,13.90
2008,05,23,15,18,13.80
2008,05,23,15,19,13.80
2008,05,23,15,20,13.70
2008,05,23,15,21,13.70
2008,05,23,15,22,13.70
2008,05,23,15,23,13.70
2008,05,23,15,24,13.60
2008,05,23,15,25,13.60
2008,05,23,15,26,13.50
2008,05,23,15,27,13.60
2008,05,23,15,28,13.60
2008,05,23,15,29,13.70
2008,05,23,15,30,13.70
2008,05,23,15,31,13.70
2008,05,23,15,32,13.70
2008,05,23,15,33,13.70
2008,05,23,15,34,13.80
2008,05,23,15,35,13.80
2008,05,23,15,36,13.90
2008,05,23,15,37,13.90
2008,05,23,15,38,13.90
2008,05,23,15,39,14.00
2008,05,23,15,40,14.00
2008,05,23,15,41,14.00
2008,05,23,15,42,14.10
2008,05,23,15,43,14.10
2008,05,23,15,44,14.10
2008,05,23,15,45,14.20
2008,05,23,15,46,14.20
2008,05,23,15,47,14.20
2008,05,23,15,48,14.20
2008,05,23,15,49,14.30
2008,05,23,15,50,14.40
2008,05,23,15,51,14.40
2008,05,23,15,52,14.40
2008,05,23,15,53,14.50
2008,05,23,15,54,14.50
2008,05,23,15,55,14.50
2008,05,23,15,56,14.50
2008,05,23,15,57,14.60
2008,05,23,15,58,14.60
2008,05,23,15,59,14.60
2008,05,23,16,00,14.50
2008,05,23,16,01,14.50
2008,05,23,16,02,14.50
2008,05,23,16,03,14.50
2008,05,23,16,04,14.60
2008,05,23,16,05,14.50
2008,05,23,16,06,14.50
2008,05,23,16,07,14.50
2008,05,23,16,08,14.50
2008,05,23,16,09,14.50
2008,05,23,16,10,14.50
2008,05,23,16,11,14.50
2008,05,23,16,12,14.50
2008,05,23,16,13,14.50
2008,05,23,16,14,14.50
2008,05,23,16,15,14.50
2008,05,23,16,16,14.50
2008,05,23,16,17,14.50
2008,05,23,16,18,14.50
2008,05,23,16,19,14.50
2008,05,23,16,20,14.50
2008,05,23,16,21,14.60
2008,05,23,16,22,14.60
2008,05,23,16,23,14.70
2008,05,23,16,24,14.70
2008,05,23,16,25,14.70
2008,05,23,16,26,14.70
2008,05,23,16,27,14.70
2008,05,23,16,28,14.60
2008,05,23,16,29,14.60
2008,05,23,16,30,14.60
2008,05,23,16,31,14.60
2008,05,23,16,32,14.60
2008,05,23,16,33,14.50
2008,05,23,16,34,14.50
2008,05,23,16,35,14.50
2008,05,23,16,36,14.50
2008,05,23,16,37,14.50
2008,05,23,16,38,14.50
2008,05,23,16,39,14.50
2008,05,23,16,40,14.60
2008,05,23,16,41,14.60
2008,05,23,16,42,14.70
2008,05,23,16,43,14.70
2008,05,23,16,44,14.70
2008,05,23,16,45,14.70
2008,05,23,16,46,14.80
2008,05,23,16,47,14.80
2008,05,23,16,48,14.80
2008,05,23,16,49,14.80
2008,05,23,16,50,14.80
2008,05,23,16,51,14.90
2008,05,23,16,52,14.90
2008,05,23,16,53,15.00
2008,05,23,16,54,15.00
2008,05,23,16,55,15.10
2008,05,23,16,56,15.10
2008,05,23,16,57,15.10
2008,05,23,16,58,15.20
2008,05,23,16,59,15.20
2008,05,23,17,00,15.30
2008,05,23,17,01,15.30
2008,05,23,17,02,15.30
2008,05,23,17,03,15.30
2008,05,23,17,04,15.40
2008,05,23,17,05,15.40
2008,05,23,17,06,15.50
2008,05,23,17,07,15.50
2008,05,23,17,08,15.50
2008,05,23,17,09,15.60
2008,05,23,17,10,15.60
2008,05,23,17,11,15.60
2008,05,23,17,12,15.60
2008,05,23,17,13,15.60
2008,05,23,17,14,15.60
2008,05,23,17,15,15.60
2008,05,23,17,16,15.60
2008,05,23,17,17,15.50
2008,05,23,17,18,15.40
2008,05,23,17,19,15.40
2008,05,23,17,20,15.30
2008,05,23,17,21,15.30
2008,05,23,17,22,15.30
2008,05,23,17,23,15.30
2008,05,23,17,24,15.30
2008,05,23,17,25,15.40
2008,05,23,17,26,15.40
2008,05,23,17,27,15.40
2008,05,23,17,28,15.40
2008,05,23,17,29,15.40
2008,05,23,17,30,15.40
2008,05,23,17,31,15.40
2008,05,23,17,32,15.40
2008,05,23,17,33,15.40
2008,05,23,17,34,15.40
2008,05,23,17,35,15.40
2008,05,23,17,36,15.40
2008,05,23,17,37,15.50
2008,05,23,17,38,15.50
2008,05,23,17,39,15.50
2008,05,23,17,40,15.50
2008,05,23,17,41,15.60
2008,05,23,17,42,15.60